CZ-3C DEB, 42467

Orbit data source: Space-Track

CZ-3C DEB, 42467 is space debris in HEO originally from a launch on Sun, 31 Oct 2010 UTC launched from the Xichang Space Center, China (XSC). Debris objects in space refer to the collection of defunct objects orbiting the Earth. Examples of debris include non-operational satellites, rocket bodies, and fragments generated from explosions, collisions, or faulty payload assembly.

Loading next visibility...
Identifier
42467, 2010-057BG
Orbit
HEO
Country
Flag of CNCN / PRC
Related business
Manufacturer
CALT
Mission
Spacecraft
Bus & Motor
Unknown
Mass
Unknown
Launch date (UTC)
2010-10-31 (15 years ago)
Launch vehicle
Unknown
Launch site
Xichang Space Center, China (XSC)
Object type
Payload
Rocket body
Debris
Shape & HBR
Unknown shape, 0.2 m
Radar Cross Section
Medium (>0.1 m² and <1 m²)

Expand to show TLE details & history
Last TLE update: 18 hours ago

TLE from 18 hours ago
0 CZ-3C DEB
1 42467U 10057BG  25298.54975956  .00017562  00000-0  10622-1 0  9995
2 42467  20.1321  52.5319 4510648 149.2416 247.5057  6.29491520226260
Epoch: 2025-10-25T13:11Z
TLE epoch observation values (Epoch: 2025-10-25T13:11:39.225Z)
Latitude
0.00005°
Longitude
-179.56988°
Altitude
9,737.454 km
Speed
4.16 km/s
True Right ascension
03h 30m 05s
True Declination
0° 00' 00"
Sunlit
Object was in daylight at epoch
Visualization orbit readout
Latitude
Unknown
Longitude
Unknown
Altitude
Unknown
Speed
Unknown
Apparent Right ascension
Unknown
Apparent Declination
Unknown
Sunlit
N/A
Visualization observer readout
Local Sidereal Time
02:45:29
Azimuth
Unknown
Elevation
Unknown
Doppler factor
Unknown
Orbital elements
Apogee altitude
11,606.698 km
Perigee altitude
425.494 km
Semi-major axis
12,394.233 km
Eccentricity
0.45106
Inclination
20.1321°
RAAN
52.5319°
Arg. of periapsis
149.2416°
True anomaly
210.78715°
Mean anomaly
247.5057°
Eccentric anomaly
228.2304°
Mean motion
1.57295 °/min
Orbital period
228.87 mins
BSTAR
0.010622
Loading maneuver chart data...
Computing Atmospheric mass density...
Loading historical data...
Loading historical data...
Loading historical data...
Loading historical data...
Loading historical data...
Loading historical data...
Loading historical data...

Documentation

Showing up to 5 results
|